Temp
81 80 79 74 61 60 57 63 75 73 75 82 82 78 73 75 70 57 75 78 78 78 80 82 82 83 83 82 82 83 83 83 83 83 83 83 83 83 83 83 84 84 84 84 84 84 84 84 84
79 80 75 68 58 54 57 70 66 74 77 80 80 77 72 65 75 71 72 78 79 79 79 80 82 82 82 83 83 83 83 83 83 83 83 83 83 84 84 84 84 84 84 84 84 84 84 84 84
82 83 66 61 59 55 57 70 72 77 82 81 76 79 74 68 74 74 77 79 79 77 77 80 82 82 82 83 83 83 83 83 83 83 83 83 83 84 83 84 84 84 84 84 84 84 84 84 84
78 72 68 60 59 63 64 70 76 76 79 80 77 69 77 81 77 78 80 81 78 77 79 82 83 83 83 83 83 83 83 83 83 83 84 84 84 84 84 84 84 84 84 84 84 84 84 84 84
73 70 60 59 61 66 71 75 78 75 75 75 76 70 70 79 81 80 80 80 76 76 78 80 83 83 83 83 83 83 83 83 83 83 84 84 84 84 84 84 84 84 84 84 84 84 84 84 84
67 66 58 57 62 64 70 76 78 75 77 75 72 71 69 80 79 80 80 78 79 77 78 80 83 83 83 83 83 83 83 83 83 83 83 84 84 84 84 84 84 84 84 84 84 83 83 83 84
66 62 60 62 62 63 69 76 73 74 74 74 78 67 71 76 81 80 79 79 79 79 78 77 79 82 83 83 83 83 83 83 83 83 83 83 84 84 84 84 84 85 85 84 84 83 83 83 83
71 63 61 64 62 64 68 69 72 70 73 83 81 68 66 77 81 80 79 78 77 77 77 76 76 77 77 78 83 83 83 83 83 83 84 84 84 84 84 83 84 85 85 84 84 83 84 83 83
72 60 58 65 66 66 71 68 71 70 77 80 83 79 80 84 81 78 77 75 75 77 74 76 75 74 75 77 81 82 83 83 83 83 84 81 75 78 79 83 84 85 84 84 84 83 83 84 83
67 57 59 69 70 69 70 69 68 68 69 75 79 83 84 81 79 76 74 73 73 74 74 76 76 73 75 82 75 75 79 76 75 75 75 73 73 75 79 82 84 85 84 84 84 84 84 84 78
66 61 66 70 74 77 71 67 73 66 63 66 75 79 80 80 79 76 76 75 75 76 77 76 76 74 74 75 73 73 74 75 75 74 73 73 74 74 75 75 75 75 79 75 76 77 77 77 76
64 69 73 71 76 74 71 73 68 72 70 77 84 84 81 80 78 78 77 77 76 77 78 77 75 74 74 75 74 73 73 73 74 75 74 72 71 71 72 72 73 73 72 72 71 71 74 76 78
68 70 73 73 72 75 77 73 72 70 77 81 86 84 81 80 81 81 80 79 79 77 78 75 75 73 73 73 74 73 74 74 76 76 75 74 72 70 72 72 73 72 71 70 70 69 73 76 77
76 75 73 71 73 78 70 69 73 73 77 77 84 81 83 82 81 80 79 78 77 77 77 75 74 74 74 72 73 74 75 77 74 75 76 76 71 70 72 73 72 72 72 73 73 73 73 74 77
79 71 76 71 72 73 73 63 64 73 74 79 83 81 80 82 82 78 79 78 77 77 77 76 75 75 74 74 74 75 77 76 74 74 77 76 75 73 72 72 71 72 74 74 75 76 75 76 76
67 66 65 70 71 74 72 56 65 70 72 73 82 82 80 82 81 81 81 80 79 78 77 77 83 77 76 75 75 75 75 72 72 73 74 76 76 74 74 73 73 74 74 74 74 75 74 74 73
61 56 63 68 74 72 69 58 65 70 69 71 77 80 79 82 80 80 81 81 80 80 78 76 78 78 76 75 75 73 73 69 71 72 73 75 77 76 75 75 74 74 74 75 74 73 73 73 74
55 57 64 64 66 68 63 61 67 68 69 70 77 79 77 79 80 81 81 82 82 80 80 78 77 76 76 75 73 71 73 69 70 71 73 77 76 78 75 75 75 75 74 74 74 73 74 73 74
64 63 64 64 68 62 63 59 63 68 69 69 77 75 76 79 81 83 82 82 81 79 76 77 75 74 73 73 71 69 70 69 70 72 75 76 76 77 75 74 75 75 74 73 75 74 74 73 73
65 62 59 64 68 65 64 62 66 68 70 74 76 74 77 78 79 81 80 81 80 78 77 76 76 74 74 74 73 74 73 71 71 72 74 76 77 77 75 74 74 75 74 74 74 73 72 72 72
64 59 60 60 63 64 64 61 61 65 73 77 79 76 80 78 77 79 79 80 80 76 77 76 75 75 73 75 72 71 70 71 71 71 72 75 77 78 76 75 75 75 73 73 74 74 73 71 72
54 71 71 64 58 54 63 48 58 63 63 72 78 77 78 79 80 79 79 79 79 77 78 77 76 75 74 74 73 72 71 69 70 72 72 74 77 78 77 76 75 74 73 73 74 76 73 72 70
66 74 73 66 57 56 57 51 53 62 62 69 71 77 79 82 82 79 79 80 81 79 78 78 76 75 74 75 73 72 70 70 72 73 73 73 75 77 79 76 75 73 72 73 74 73 73 73 72
77 70 66 60 53 46 56 54 54 55 64 66 72 72 77 80 83 82 81 82 80 81 79 78 76 74 73 75 73 72 72 71 71 71 70 71 72 74 76 77 75 74 73 73 73 75 74 73 73
68 56 45 44 48 47 57 55 59 64 68 71 71 72 72 69 73 79 80 78 78 79 78 77 75 72 73 74 74 73 72 71 72 71 70 71 71 72 74 75 74 73 74 74 74 74 75 74 73
59 58 48 44 45 49 59 51 59 69 72 73 74 70 70 70 71 69 74 79 78 79 78 78 74 72 72 74 74 73 73 71 72 73 71 72 73 73 75 75 75 75 76 75 74 74 74 74 73
59 55 62 54 48 51 52 55 64 67 65 70 67 71 70 69 68 68 70 74 72 71 73 77 75 73 72 74 73 73 73 72 73 73 72 73 73 76 75 75 75 76 76 75 74 72 73 73 73
65 65 59 52 44 41 47 49 48 57 61 66 66 64 67 65 67 68 69 69 70 70 70 71 77 75 73 74 75 75 74 73 72 71 72 73 75 76 74 74 75 75 75 75 74 73 73 73 73
60 55 54 54 49 44 42 44 60 60 62 62 64 65 63 64 65 66 67 70 69 70 70 71 69 73 74 74 73 75 75 75 74 73 74 75 74 74 74 73 74 74 74 75 73 72 73 73 72
63 58 54 49 47 47 44 48 62 61 62 63 63 63 64 65 66 67 66 67 70 68 69 69 69 70 71 72 73 72 73 75 74 74 75 74 74 73 73 73 73 73 74 74 73 74 76 74 73
MSLP
1011.98 1012.29 1012.54 1012.68 1013.23 1012.68 1011.88 1009.74 1008.49 1007.73 1007.59 1007.80 1009.14 1009.37 1010.50 1010.96 1012.30 1014.19 1014.44 1015.08 1015.62 1016.06 1016.26 1016.38 1016.47 1016.68 1016.83 1016.90 1017.06 1017.29 1017.46 1017.50 1017.52 1017.51 1017.46 1017.42 1017.40 1017.44 1017.46 1017.52 1017.56 1017.56 1017.56 1017.65 1017.66 1017.73 1017.82 1017.92 1017.96
1012.03 1012.43 1012.56 1012.62 1012.63 1012.24 1011.24 1009.43 1008.67 1007.52 1007.88 1007.99 1008.94 1009.92 1010.53 1012.32 1012.57 1013.79 1014.62 1015.29 1015.54 1015.99 1016.37 1016.54 1016.68 1016.78 1016.96 1017.12 1017.24 1017.32 1017.40 1017.46 1017.55 1017.63 1017.68 1017.62 1017.60 1017.61 1017.65 1017.76 1017.90 1017.84 1017.81 1017.99 1018.12 1018.20 1018.20 1018.25 1018.30
1011.73 1011.96 1012.53 1012.54 1012.28 1011.61 1010.60 1009.07 1008.54 1008.06 1007.84 1007.65 1009.09 1010.08 1011.31 1012.57 1013.41 1013.99 1014.44 1015.19 1015.70 1016.22 1016.53 1016.69 1016.91 1017.03 1017.17 1017.36 1017.38 1017.44 1017.54 1017.57 1017.66 1017.81 1017.84 1017.86 1017.79 1017.76 1017.92 1018.02 1018.05 1018.07 1018.05 1018.28 1018.43 1018.52 1018.49 1018.56 1018.50
1011.68 1012.10 1012.34 1012.22 1011.64 1011.42 1010.38 1009.43 1008.86 1008.45 1008.55 1008.24 1009.26 1011.22 1012.24 1012.90 1013.25 1013.90 1014.79 1015.14 1015.84 1016.30 1016.58 1016.78 1016.93 1017.10 1017.30 1017.48 1017.57 1017.65 1017.78 1017.83 1017.76 1017.83 1017.97 1018.04 1018.01 1017.99 1018.13 1018.20 1018.24 1018.36 1018.37 1018.52 1018.65 1018.68 1018.74 1018.70 1018.72
1011.89 1012.02 1011.96 1011.64 1011.30 1010.79 1010.29 1009.33 1008.92 1008.34 1008.52 1009.11 1009.29 1012.04 1012.73 1013.55 1013.82 1014.52 1015.12 1015.65 1015.97 1016.58 1016.76 1016.88 1017.03 1017.28 1017.42 1017.62 1017.74 1017.89 1017.93 1018.00 1018.08 1018.00 1018.13 1018.20 1018.24 1018.23 1018.27 1018.32 1018.41 1018.49 1018.60 1018.82 1018.95 1018.97 1019.08 1019.07 1019.09
1011.79 1012.30 1012.08 1011.37 1010.98 1011.04 1010.51 1009.50 1008.95 1008.72 1009.37 1010.22 1010.57 1011.88 1013.40 1014.09 1014.28 1014.78 1015.34 1015.96 1016.21 1016.59 1016.90 1017.04 1017.25 1017.48 1017.58 1017.65 1017.72 1017.91 1018.01 1018.14 1018.22 1018.28 1018.34 1018.42 1018.44 1018.45 1018.45 1018.50 1018.54 1018.58 1018.73 1018.86 1019.04 1019.31 1019.44 1019.52 1019.38
1011.79 1011.99 1011.52 1011.16 1011.10 1011.08 1010.45 1010.02 1009.80 1009.67 1010.08 1010.64 1010.66 1011.86 1013.76 1014.38 1014.52 1014.88 1015.49 1016.08 1016.33 1016.62 1017.00 1017.34 1017.56 1017.59 1017.73 1017.88 1017.88 1017.99 1018.14 1018.28 1018.39 1018.51 1018.54 1018.61 1018.66 1018.68 1018.65 1018.76 1018.74 1018.72 1018.84 1018.94 1019.18 1019.51 1019.72 1019.57 1019.52
1011.46 1012.50 1011.67 1010.98 1010.88 1010.91 1011.33 1011.07 1011.01 1011.10 1010.84 1010.80 1011.20 1012.31 1013.29 1013.96 1014.70 1015.37 1015.90 1016.45 1016.78 1017.03 1017.15 1017.47 1017.65 1017.79 1017.97 1018.12 1018.14 1018.23 1018.40 1018.41 1018.44 1018.59 1018.73 1018.70 1018.83 1019.02 1019.02 1018.99 1019.01 1019.07 1019.12 1019.28 1019.47 1019.69 1019.72 1019.86 1019.98
1012.30 1011.16 1011.50 1010.89 1010.71 1010.87 1011.44 1011.53 1012.04 1012.34 1011.44 1011.29 1010.76 1011.54 1012.57 1013.64 1014.95 1015.80 1016.37 1017.02 1017.34 1017.56 1017.72 1017.63 1017.82 1017.96 1018.20 1018.36 1018.39 1018.48 1018.56 1018.66 1018.76 1018.66 1018.82 1019.05 1019.21 1019.32 1019.36 1019.22 1019.18 1019.26 1019.31 1019.46 1019.66 1019.92 1019.87 1020.13 1020.27
1011.54 1012.54 1011.47 1010.99 1010.84 1010.83 1011.15 1011.62 1012.80 1012.82 1012.26 1011.83 1011.59 1012.21 1012.79 1013.95 1015.00 1015.64 1016.36 1016.95 1017.38 1017.60 1017.74 1017.76 1017.83 1018.17 1018.28 1018.30 1018.67 1018.82 1018.76 1018.98 1019.08 1019.11 1019.29 1019.43 1019.51 1019.56 1019.61 1019.49 1019.42 1019.52 1019.59 1019.68 1019.75 1019.74 1019.94 1020.11 1020.51
1010.96 1010.95 1011.16 1010.29 1010.23 1010.16 1011.11 1012.36 1012.30 1012.48 1012.88 1012.71 1011.52 1012.01 1013.11 1013.90 1014.88 1015.33 1015.85 1016.10 1016.58 1017.22 1017.64 1017.89 1018.02 1018.24 1018.36 1018.49 1018.93 1018.99 1018.91 1019.09 1019.32 1019.46 1019.64 1019.68 1019.76 1019.85 1019.90 1019.95 1019.89 1019.89 1019.93 1020.01 1019.93 1020.02 1020.20 1020.31 1020.26
1010.30 1010.62 1010.21 1009.97 1009.92 1010.60 1010.93 1011.90 1012.64 1012.27 1011.73 1011.81 1011.62 1011.96 1012.90 1013.84 1014.70 1015.16 1015.77 1016.40 1016.71 1017.24 1017.41 1017.76 1018.00 1018.33 1018.48 1018.69 1018.93 1019.14 1019.12 1019.09 1019.37 1019.48 1019.63 1019.80 1020.00 1020.22 1020.29 1020.28 1020.15 1020.15 1020.36 1020.35 1020.27 1020.43 1020.32 1020.03 1019.96
1009.28 1009.58 1009.34 1010.04 1010.43 1010.42 1011.20 1011.70 1011.91 1012.14 1011.26 1011.32 1011.60 1012.20 1012.91 1013.67 1014.27 1014.97 1015.26 1016.09 1016.54 1016.91 1017.30 1017.74 1017.96 1018.35 1018.56 1018.81 1018.89 1019.24 1019.35 1019.39 1019.33 1019.49 1019.56 1019.67 1019.98 1020.27 1020.42 1020.59 1020.51 1020.44 1020.43 1020.64 1020.60 1020.48 1020.45 1020.12 1019.98
1007.72 1008.53 1009.40 1009.32 1009.77 1010.23 1011.04 1012.07 1012.14 1012.52 1012.15 1011.77 1011.71 1012.30 1012.94 1013.48 1014.14 1015.11 1015.52 1016.08 1016.59 1016.80 1017.21 1017.75 1018.07 1018.23 1018.57 1018.79 1019.00 1019.18 1019.30 1019.40 1019.61 1019.51 1019.56 1019.82 1019.86 1020.38 1020.61 1020.74 1020.82 1020.65 1020.52 1020.55 1020.48 1020.44 1020.54 1020.47 1020.23
1007.04 1007.96 1008.45 1009.31 1009.61 1010.40 1011.20 1012.62 1013.24 1013.22 1012.93 1012.00 1011.74 1012.18 1012.72 1013.40 1014.09 1014.62 1015.24 1015.85 1016.26 1016.71 1017.24 1017.64 1017.84 1018.20 1018.43 1018.74 1018.92 1019.08 1019.09 1019.29 1019.68 1019.72 1019.69 1019.74 1019.97 1020.31 1020.52 1020.60 1020.70 1020.74 1020.54 1020.52 1020.43 1020.40 1020.39 1020.30 1020.57
1007.12 1007.41 1008.21 1008.90 1009.75 1010.06 1010.42 1012.90 1013.48 1013.60 1013.38 1012.55 1012.01 1012.16 1012.57 1013.32 1013.90 1014.46 1015.02 1015.51 1016.16 1016.49 1017.17 1017.40 1017.60 1017.98 1018.29 1018.64 1018.76 1019.05 1019.20 1019.46 1019.59 1019.77 1019.88 1019.89 1020.04 1020.26 1020.47 1020.52 1020.60 1020.55 1020.68 1020.73 1020.70 1020.58 1020.86 1020.90 1020.98
1007.75 1007.74 1008.31 1008.86 1009.19 1009.29 1010.25 1012.84 1012.73 1013.29 1013.30 1013.02 1012.36 1012.27 1012.44 1013.04 1013.76 1014.32 1015.02 1015.44 1015.81 1016.18 1017.06 1017.47 1017.68 1017.90 1018.43 1018.70 1018.78 1019.12 1019.55 1020.03 1019.78 1019.79 1020.13 1019.98 1020.00 1020.24 1020.40 1020.51 1020.70 1020.79 1020.96 1020.90 1020.88 1021.08 1021.08 1021.21 1021.19
1008.23 1008.12 1008.04 1008.58 1009.76 1010.96 1011.24 1011.93 1012.23 1012.55 1012.96 1012.77 1012.34 1012.29 1012.53 1013.05 1013.56 1014.09 1014.85 1015.38 1015.78 1016.31 1016.97 1017.54 1017.78 1017.90 1018.38 1018.75 1019.18 1019.74 1019.77 1020.05 1020.12 1020.14 1020.14 1020.09 1020.06 1020.08 1020.34 1020.64 1020.87 1020.80 1020.91 1021.11 1021.13 1021.13 1021.14 1021.15 1021.16
1008.28 1008.78 1008.86 1009.48 1010.70 1011.40 1011.74 1012.34 1012.24 1012.68 1013.07 1012.71 1012.01 1012.14 1012.50 1012.96 1013.56 1014.08 1014.58 1015.34 1015.91 1016.42 1017.07 1017.55 1017.89 1018.24 1018.57 1019.02 1019.58 1020.17 1020.22 1020.41 1020.45 1020.16 1020.13 1020.10 1020.16 1020.19 1020.44 1020.79 1020.88 1020.82 1021.14 1021.22 1021.25 1021.41 1021.43 1021.35 1021.30
1008.13 1008.84 1009.70 1010.29 1010.88 1011.40 1012.23 1012.88 1013.04 1012.79 1012.47 1011.99 1011.66 1011.95 1012.30 1012.98 1013.58 1014.04 1014.78 1015.22 1015.88 1016.52 1016.90 1017.49 1017.78 1018.30 1018.56 1018.87 1019.24 1019.56 1019.98 1020.44 1020.29 1020.29 1020.19 1020.20 1020.18 1020.23 1020.50 1020.78 1020.85 1020.91 1021.24 1021.36 1021.36 1021.42 1021.68 1021.41 1021.42
1007.69 1008.26 1009.15 1009.62 1010.66 1012.32 1012.61 1012.24 1012.66 1012.74 1012.27 1011.79 1011.56 1011.85 1012.00 1012.57 1013.38 1013.91 1014.61 1015.08 1015.66 1016.45 1016.90 1017.47 1017.90 1018.18 1018.53 1018.92 1019.46 1019.82 1020.32 1020.37 1020.54 1020.47 1020.34 1020.13 1020.25 1020.34 1020.55 1020.70 1020.76 1020.90 1021.14 1021.51 1021.46 1021.45 1021.62 1021.88 1021.67
1007.09 1006.75 1007.92 1009.07 1010.36 1011.43 1012.26 1012.38 1012.06 1011.99 1011.93 1011.66 1011.46 1011.62 1011.82 1012.25 1012.88 1013.45 1014.30 1015.02 1015.52 1016.12 1016.69 1017.32 1017.72 1018.13 1018.59 1018.84 1019.29 1019.62 1020.08 1020.48 1020.55 1020.42 1020.30 1020.06 1020.21 1020.35 1020.44 1020.67 1020.64 1020.83 1021.10 1021.44 1021.51 1021.46 1021.63 1021.91 1021.96
1005.81 1006.01 1006.57 1008.25 1010.00 1011.14 1012.01 1012.22 1011.66 1011.52 1012.00 1011.67 1011.34 1011.25 1011.63 1011.78 1012.34 1013.14 1013.87 1014.60 1015.32 1015.95 1016.45 1017.01 1017.54 1017.99 1018.50 1018.79 1019.24 1019.58 1020.02 1020.10 1020.28 1020.40 1020.50 1020.49 1020.40 1020.40 1020.39 1020.65 1020.84 1021.13 1021.20 1021.25 1021.37 1021.59 1021.73 1021.80 1021.92
1004.83 1005.78 1007.09 1008.78 1010.31 1010.94 1010.79 1011.48 1011.36 1010.94 1010.34 1011.03 1011.08 1011.35 1011.50 1011.88 1012.35 1013.00 1013.62 1014.31 1015.07 1015.83 1016.46 1016.93 1017.52 1017.84 1018.50 1018.74 1019.22 1019.53 1019.76 1020.06 1020.27 1020.57 1020.79 1020.92 1020.82 1020.70 1020.51 1020.62 1020.71 1020.97 1021.20 1021.37 1021.32 1021.23 1021.69 1021.88 1021.81
1004.70 1006.43 1008.12 1009.97 1011.27 1010.54 1010.18 1011.04 1009.47 1009.36 1009.62 1009.58 1010.08 1011.23 1011.88 1012.74 1013.00 1013.18 1014.00 1014.50 1015.18 1015.70 1016.43 1016.90 1017.49 1017.92 1018.20 1018.73 1019.10 1019.38 1019.60 1019.78 1019.99 1020.41 1020.68 1020.76 1020.75 1020.77 1020.76 1020.76 1020.94 1021.00 1021.02 1021.14 1021.19 1021.34 1021.52 1021.70 1021.79
1004.82 1005.98 1007.58 1008.84 1009.82 1010.18 1010.13 1010.30 1009.24 1008.30 1009.49 1010.17 1010.74 1011.83 1012.72 1013.25 1013.98 1014.44 1014.49 1014.84 1014.93 1015.32 1016.00 1016.60 1017.28 1017.82 1018.10 1018.60 1018.92 1019.14 1019.29 1019.62 1019.86 1019.92 1020.21 1020.46 1020.43 1020.42 1020.32 1020.44 1020.63 1020.76 1020.89 1020.96 1021.14 1021.26 1021.38 1021.49 1021.75
1004.56 1005.66 1006.43 1007.90 1008.98 1010.12 1010.60 1010.32 1009.91 1009.75 1010.39 1010.90 1011.43 1012.17 1013.15 1013.75 1014.19 1015.24 1015.09 1014.79 1015.71 1016.46 1016.67 1016.70 1016.85 1017.32 1017.89 1018.07 1018.63 1018.98 1019.07 1019.28 1019.45 1019.71 1019.87 1019.87 1020.00 1020.03 1020.14 1020.21 1020.33 1020.46 1020.73 1020.96 1021.16 1021.36 1021.36 1021.53 1021.61
1004.18 1005.30 1006.82 1008.36 1009.86 1010.91 1011.42 1011.89 1012.18 1011.88 1011.84 1011.67 1012.42 1013.15 1013.99 1014.34 1015.28 1015.49 1016.16 1015.88 1015.98 1016.67 1017.28 1017.40 1017.30 1017.66 1017.95 1018.06 1018.20 1018.39 1018.54 1018.85 1019.12 1019.55 1019.73 1019.64 1019.57 1019.49 1019.88 1020.17 1020.18 1020.26 1020.52 1020.75 1021.07 1021.34 1021.42 1021.58 1021.49
1005.17 1006.05 1007.47 1008.61 1009.95 1011.10 1012.20 1013.55 1012.66 1012.94 1013.14 1013.24 1013.48 1013.91 1014.41 1014.96 1015.88 1016.29 1016.59 1016.08 1015.94 1016.26 1017.48 1018.08 1018.36 1017.78 1017.88 1018.02 1018.46 1018.29 1018.17 1018.41 1018.76 1019.13 1019.45 1019.45 1019.36 1019.46 1019.54 1019.90 1020.22 1020.38 1020.60 1020.60 1020.92 1021.11 1021.26 1021.40 1021.34
1005.23 1006.24 1007.58 1009.26 1010.56 1011.63 1012.64 1014.26 1013.90 1013.80 1014.13 1014.11 1014.19 1014.29 1014.86 1015.53 1015.76 1016.28 1017.01 1016.78 1016.56 1016.22 1017.00 1018.11 1019.09 1018.57 1018.07 1018.20 1018.04 1018.50 1018.33 1018.26 1018.45 1018.68 1018.88 1018.99 1019.06 1019.13 1019.34 1019.64 1020.10 1020.34 1020.53 1020.57 1020.68 1020.76 1020.89 1021.09 1021.16
Wind_Speed
7 5 2 1 2 2 3 8 5 6 4 4 15 10 4 5 2 5 14 13 16 11 12 12 14 14 14 14 14 14 14 14 13 14 13 15 15 15 15 15 15 14 15 16 16 16 18 17 16
5 5 1 1 1 3 3 3 9 15 14 20 13 8 10 6 8 16 13 17 16 13 8 9 13 13 13 14 12 14 14 14 15 13 13 14 15 14 15 15 15 15 14 14 15 15 16 16 14
6 7 1 2 2 3 4 2 14 13 8 8 8 10 6 8 16 11 16 18 15 11 8 10 14 13 13 13 12 12 13 12 15 13 13 15 15 14 15 16 14 15 14 14 14 15 14 12 10
3 1 3 3 2 4 5 2 8 16 11 14 18 13 10 9 7 13 19 18 15 11 8 13 15 13 14 13 12 13 12 12 13 14 13 13 14 15 15 15 14 13 13 13 14 13 12 11 9
1 1 3 4 5 4 4 7 15 8 8 17 19 11 6 7 18 21 19 15 15 11 9 10 14 13 14 13 12 12 12 11 12 12 13 14 14 15 15 14 14 13 13 13 13 13 12 13 16
1 1 2 2 0 2 2 5 13 21 18 19 19 13 6 19 21 18 18 15 14 13 8 8 13 14 13 14 13 13 12 11 14 13 13 14 14 14 15 13 12 12 12 12 11 10 13 12 10
2 2 3 2 4 5 4 8 9 19 20 13 18 16 14 20 18 18 16 14 13 12 9 6 6 10 13 12 12 13 12 13 13 13 14 14 13 14 14 12 11 12 12 11 10 8 11 8 7
1 3 4 1 6 4 10 4 5 11 12 16 20 9 21 18 20 16 15 14 12 9 10 7 6 6 5 5 12 12 12 12 14 14 14 13 14 14 12 9 10 11 11 8 7 7 9 7 7
4 4 5 2 4 6 13 11 5 3 11 12 2 17 23 23 22 17 15 12 10 8 6 7 7 6 5 5 7 11 12 12 12 11 13 9 4 5 7 7 10 10 8 6 5 6 6 7 6
6 1 4 6 11 6 11 15 13 4 6 5 15 15 22 26 21 20 16 13 12 11 8 7 7 6 6 6 5 4 5 4 4 4 5 4 4 4 5 7 9 9 7 5 3 3 5 5 2
7 6 5 9 10 10 13 14 9 15 3 8 21 19 25 24 21 20 17 18 14 13 9 8 7 6 6 5 3 2 2 3 2 4 4 3 3 3 3 2 2 3 3 1 3 2 1 1 3
7 7 7 5 4 7 12 14 14 10 9 14 16 17 22 23 20 17 15 14 14 12 11 8 7 6 5 4 4 4 3 2 3 4 6 5 3 3 3 2 1 1 2 2 3 2 5 5 5
5 10 9 3 4 10 13 14 11 12 9 6 17 15 20 21 19 14 16 15 13 13 11 9 7 6 5 5 3 3 3 3 4 4 5 4 4 4 4 2 2 1 1 1 2 3 3 3 1
8 11 10 15 9 13 13 9 3 11 7 9 20 14 17 21 18 14 14 14 11 12 10 8 7 6 6 5 5 4 3 2 2 3 4 5 5 4 3 3 3 3 3 3 1 2 1 1 4
11 9 9 13 10 9 15 8 7 3 5 13 18 11 9 19 21 19 18 16 14 11 11 9 8 7 7 6 4 4 4 4 4 3 4 6 5 5 4 4 4 4 3 1 1 1 3 3 2
2 1 7 9 13 13 6 5 3 7 6 6 16 12 8 19 19 18 17 16 14 13 11 8 8 8 7 6 5 4 5 5 3 3 2 6 6 6 4 3 3 1 2 2 1 2 3 1 1
4 4 7 9 20 11 5 11 13 14 10 8 12 14 9 20 17 16 16 16 16 16 13 7 8 10 7 6 5 4 5 4 2 3 2 4 6 6 3 3 2 2 2 2 1 1 1 1 2
4 1 2 7 10 7 8 8 19 18 14 11 13 13 8 20 18 18 19 16 15 13 13 10 6 7 7 5 5 3 2 2 2 2 1 2 3 5 3 2 2 3 2 2 1 1 1 1 2
3 5 4 6 9 7 7 14 20 17 13 15 14 10 10 17 16 18 18 18 14 11 9 10 8 6 5 2 4 3 2 2 1 3 4 2 3 5 3 3 3 0 1 2 1 1 1 1 1
5 3 5 8 7 9 5 14 19 19 22 18 14 10 14 13 14 15 16 18 14 13 11 9 9 8 5 3 2 3 3 3 2 2 4 3 4 4 4 4 3 1 2 2 0 3 1 2 2
8 6 9 6 9 4 6 3 4 3 9 12 12 9 16 18 17 15 15 17 12 11 13 11 9 8 6 6 4 4 4 3 2 1 2 3 5 5 5 5 3 3 2 2 1 2 3 2 3
7 9 13 18 8 6 6 4 5 8 9 13 15 11 15 14 16 17 15 15 14 12 13 12 9 7 6 7 6 6 4 3 3 3 2 3 5 6 5 4 4 4 2 3 1 1 1 3 2
11 6 10 17 5 8 2 3 2 9 9 14 8 12 12 17 17 19 16 17 13 13 14 13 11 8 6 6 5 4 3 2 2 2 4 2 4 4 5 5 6 4 3 2 4 2 2 1 2
7 4 8 7 4 2 11 6 5 10 18 21 11 10 13 12 15 15 16 17 15 12 12 13 12 8 7 6 6 6 8 6 4 2 3 2 2 3 5 4 5 4 3 4 4 3 3 2 2
5 7 2 2 1 8 13 4 7 11 16 22 17 11 9 10 5 10 15 16 14 14 12 11 11 8 8 7 7 7 7 7 7 6 4 4 3 2 4 5 4 3 4 4 3 3 3 2 1
3 9 7 6 6 2 10 7 8 12 9 5 7 8 7 9 8 8 7 9 16 16 14 13 12 8 8 7 7 7 7 5 4 6 4 4 4 4 5 6 6 5 4 4 3 2 2 1 1
3 2 7 3 1 4 4 2 7 9 4 8 7 8 10 10 14 7 5 13 10 9 4 8 12 10 9 9 6 6 6 6 6 6 5 5 4 4 6 6 7 6 5 4 4 2 3 3 2
7 4 3 4 1 3 4 5 2 4 6 6 7 7 9 13 12 11 6 10 13 12 11 9 3 4 3 6 8 7 8 7 6 5 6 6 6 7 7 6 6 6 6 6 6 3 4 4 4
4 3 6 5 5 4 5 2 3 9 10 8 9 8 8 9 9 7 1 6 11 13 9 8 8 2 4 5 4 8 9 8 7 6 6 7 5 6 7 7 6 6 6 6 6 6 6 6 5
5 5 5 6 3 3 5 2 6 13 12 10 9 13 11 11 9 7 5 4 2 6 5 7 5 6 5 3 3 5 5 7 8 7 7 6 7 5 6 6 6 6 7 6 6 6 5 6 5
Wind_Direction
174 147 169 163 68 5 210 247 346 110 58 85 160 141 141 88 155 173 133 135 134 135 139 143 136 132 128 121 118 116 116 115 110 108 109 107 111 111 108 104 106 106 106 104 103 103 100 101 104
142 155 281 259 149 167 229 304 146 101 112 102 84 86 55 83 83 117 117 136 138 135 135 132 133 132 128 122 125 122 118 122 120 117 116 112 112 111 112 107 106 109 110 107 105 105 104 103 110
171 215 158 171 193 183 234 78 132 122 135 114 107 67 70 100 114 132 130 136 136 128 133 140 133 133 124 122 124 121 120 119 123 124 128 121 114 111 109 109 109 110 109 109 108 108 106 105 101
179 81 335 248 210 139 235 3 104 107 79 80 104 76 90 115 114 129 134 136 130 132 138 135 136 137 131 131 133 124 119 120 120 133 126 127 120 113 108 117 113 110 109 109 111 113 113 98 100
322 12 229 240 196 186 230 321 148 121 77 99 108 114 71 94 117 129 136 133 131 131 136 141 144 137 139 132 125 125 128 128 126 125 128 121 118 117 115 122 119 119 117 114 116 124 114 100 97
96 73 250 216 320 273 220 63 122 100 107 105 101 113 111 131 136 139 136 137 135 136 135 149 141 141 140 136 133 134 128 124 126 119 118 122 124 124 124 120 122 125 127 120 124 129 108 96 93
213 201 237 189 155 220 83 19 60 105 119 119 127 118 130 144 144 142 135 131 138 137 135 139 140 145 146 143 137 128 129 128 122 124 123 122 126 125 123 124 127 130 134 132 128 113 108 123 109
84 354 291 186 171 145 108 77 352 39 90 125 123 150 153 158 143 131 130 130 138 141 143 144 143 131 137 145 139 137 133 134 132 130 131 134 133 124 122 124 129 125 132 127 119 115 135 118 87
90 350 329 304 168 114 142 117 37 303 130 142 79 137 147 144 135 131 132 133 140 148 153 149 142 146 142 143 148 136 139 137 140 137 138 121 103 116 116 125 128 125 127 127 122 126 117 122 117
142 277 253 329 319 169 126 123 143 96 40 39 126 129 136 136 143 144 149 149 159 158 168 165 157 152 151 151 121 139 144 131 140 140 120 129 134 134 131 125 121 125 127 127 130 159 136 129 113
152 165 202 275 283 160 129 135 136 132 140 232 158 148 142 146 152 155 161 157 167 166 164 171 160 162 162 134 139 174 152 152 147 146 148 162 142 112 106 67 77 97 111 31 0 346 71 183 207
124 236 223 303 353 110 125 139 137 154 196 189 172 152 143 150 156 158 151 155 158 166 162 161 151 162 159 149 155 184 185 178 155 170 153 146 142 125 128 138 140 135 73 317 340 343 322 290 246
222 172 216 81 306 129 150 127 137 163 167 165 165 150 151 158 159 157 148 152 158 156 158 158 150 162 150 154 174 165 193 189 169 172 180 143 144 163 141 137 163 198 206 229 228 296 330 342 312
207 186 176 189 166 150 114 75 132 181 177 187 167 167 165 159 160 147 143 146 150 150 150 143 165 169 157 167 178 188 189 180 155 165 159 161 149 128 162 192 201 216 201 236 135 247 207 159 90
249 145 158 190 161 133 118 45 28 165 241 183 170 173 155 161 154 158 157 151 146 151 151 164 165 169 166 163 202 168 184 129 150 132 177 148 133 160 165 167 173 209 193 286 311 28 346 50 30
140 291 150 154 175 166 110 167 284 250 237 194 178 177 176 160 158 159 156 148 150 147 157 172 159 157 166 160 145 155 121 129 118 102 111 148 140 143 139 156 206 202 70 184 137 39 52 79 322
12 197 122 162 190 164 160 165 187 197 225 228 204 183 178 156 153 153 153 158 155 153 155 167 155 155 161 137 143 110 121 113 129 109 117 130 144 141 130 153 139 146 205 242 77 349 143 176 236
234 25 125 157 149 37 122 145 170 193 208 222 205 185 154 157 159 158 155 153 158 157 159 153 158 147 141 130 104 92 77 88 110 145 171 151 148 126 127 106 150 199 136 127 183 226 325 234 166
296 356 61 90 100 130 112 146 187 192 206 226 188 182 156 160 157 150 154 157 159 154 154 154 153 151 133 134 126 110 175 73 262 177 203 150 185 130 152 133 186 276 92 164 180 96 37 331 44
267 134 103 74 98 59 150 143 181 204 210 209 178 172 157 155 162 155 149 157 160 162 150 153 163 155 163 124 156 126 141 174 175 191 208 186 182 151 134 156 196 198 146 149 248 83 9 326 75
259 167 182 152 109 27 264 73 138 286 210 198 185 170 167 157 162 161 155 160 157 144 153 155 169 167 143 142 99 73 64 53 75 21 267 210 185 172 159 171 174 192 127 164 255 98 92 17 333
257 211 168 146 132 170 221 218 228 170 250 191 193 174 175 167 162 165 159 162 163 154 153 157 161 168 150 152 132 154 152 149 211 183 248 230 193 183 170 157 173 163 162 166 176 114 152 140 17
238 202 182 165 124 117 262 115 263 144 195 206 201 174 164 178 160 168 164 167 166 154 159 164 166 173 162 151 152 157 140 156 170 164 176 219 213 203 177 172 157 179 190 175 162 131 204 78 122
231 86 65 56 58 76 194 159 210 182 176 205 197 200 165 167 165 167 163 167 170 164 158 165 173 180 161 168 161 185 157 168 141 144 152 215 191 229 185 193 182 183 192 201 204 168 190 152 118
105 74 78 86 256 229 159 177 244 184 180 195 177 170 136 84 54 151 169 170 167 170 167 166 172 189 167 178 165 182 179 177 172 168 170 182 183 205 207 182 195 190 214 214 199 170 187 177 168
140 141 154 183 172 182 151 202 267 193 169 139 137 135 101 86 62 80 104 174 173 174 171 170 176 179 171 170 186 186 180 176 191 178 177 207 203 193 191 183 191 199 205 189 187 190 225 186 203
254 95 195 97 88 94 184 17 28 61 75 133 108 114 148 121 115 86 96 114 83 51 40 197 176 183 174 178 177 181 190 195 200 195 193 200 216 202 185 177 176 192 209 199 202 209 235 253 230
133 170 67 19 245 127 347 64 308 81 77 57 126 142 132 116 107 117 101 86 92 74 40 22 186 198 224 200 179 193 192 196 211 172 208 226 221 191 187 203 199 189 201 202 198 212 241 236 262
35 56 58 111 118 159 140 4 287 104 92 87 82 111 99 88 99 91 114 132 123 98 47 19 350 35 199 194 237 206 201 197 204 188 210 219 203 194 182 190 196 199 212 207 196 211 225 229 247
141 139 112 116 273 93 105 81 91 100 88 88 81 90 92 79 80 99 152 77 71 123 124 318 287 332 63 356 192 226 220 215 201 206 203 203 203 195 189 184 202 206 214 220 211 214 218 226 239